STARLINK-32652, 62234

Orbit data source: Space-Track

STARLINK-32652, 62234 is a payload satellite owned by SpaceX/Seattle (US) in LEO that was launched on Thu, 05 Dec 2024 UTC via an FALCON 9 launch vehicle from the Air Force Western Test Range (AFWTR). Payload-class satellites include a variety of spacecraft equipped with specific instruments for various scientific and technological missions. These include communications satellites like Starlink; space stations such as the ISS; scientific satellites like the Hubble; Earth observation satellites from companies like Planet Labs, Umbra, and HawkEye 360; GPS; miniature CubeSats for education and research; and military/defense satellites.

Loading next visibility...
Identifier
62234, 2024-231S
Orbit
LEO
Last TLE update
13 hours ago
Origin
Manufacturer
SpaceX/Seattle
Mission
Operational Commercial Communications
Bus & Motor
STARLINK V2M, Unknown motor
Mass
730 kg wet, ~700 kg dry
Launch date (UTC)
2024-12-05 (7 months ago)
Launch vehicle
FALCON 9
Launch site
Air Force Western Test Range (AFWTR)
Object type
Payload
Rocket body
Debris
Shape & HBR
Box + 2 Pan, 29 m
Radar Cross Section
33.884 m², Large (>1 m²)

Expand to show TLE details & history

TLE from 13 hours ago
0 STARLINK-32652
1 62234U 24231S   25191.47135651  .00015079  00000-0  52025-3 0  9998
2 62234  53.1584 264.7136 0000998  55.0476 305.0619 15.30196653 34670
Epoch: 2025-07-10T11:18Z
TLE epoch observation values (Epoch: 2025-07-10T11:18:45.202Z)
Latitude
0.00003°
Longitude
166.38812°
Altitude
475.732 km
Speed
7.629 km/s
True Right ascension
17h 38m 51s
True Declination
0° 00' 00"
Sunlit
Object was in full shadow at epoch
Visualization orbit readout
Latitude
51.49263°
Longitude
-85.59091°
Altitude
480.862 km
Speed
7.632 km/s
Apparent Right ascension
00h 41m 59s
Apparent Declination
7° 54' 15"
Sunlit
Object is in daylight
Visualization observer readout
Local Sidereal Time
12:34:10
Azimuth
357.388° N
Elevation
-42.146°
Doppler factor
1
Orbital elements
Apogee altitude
476.166 km
Perigee altitude
474.798 km
Semi-major axis
6,853.619 km
Eccentricity
0.0001
Inclination
53.1584°
RAAN
264.7136°
Arg. of periapsis
55.0476°
True anomaly
Unknown
Mean anomaly
305.0619°
Eccentric anomaly
Unknown
Mean motion
3.82528 °/min
Orbital period
94.11 mins
BSTAR
0.00052025
Loading maneuver chart data...
Loading SW <> Apogee altitude chart data...
Loading historical data...
Loading historical data...
Loading historical data...
Loading historical data...
Loading historical data...
Loading historical data...
Loading historical data...

STARLINK-32652 Visibility forecast

Observer location: undefined°, undefined°

Span
Click to sort rows by Start time (UTC) header in descending order
Start Az.
Max El. time (UTC)
Max El. Az.
Max El.
End time (UTC)
End Az.
5 mins2025-07-11 07:53:57.503Z245.948° WSW2025-07-11 07:55:57.503Z326.589° NNW42.19°2025-07-11 07:58:57.503Z43.486° NE
5 mins2025-07-11 14:28:57.503Z305.198° NW2025-07-11 14:30:57.503Z224.302° SW44.435°2025-07-11 14:33:57.503Z136.141° SSE
|